Regional Weather Roundup
Issued by NWS

Home | Current Version | Previous Version | Graphics & Text | Print | Product List | Glossary On
Versions: 1 2 3 4 5 6 7 8 9 10 11 12 13 14 15 16 17 18 19 20 21 22 23 24 25 26 27 28 29 30 31 32 33 34 35 36 37 38 39 40 41 42 43 44 45 46 47 48 49 50
000
ASUS44 KMEG 062300
RWRTN
TENNESSEE HOURLY STATE WEATHER ROUNDUP
NATIONAL WEATHER SERVICE MEMPHIS TN
500 PM CST FRI MAR 06 2015

TNZ002-004-019-021-049-052-054-088>092-070000-
WEST TENNESSEE

CITY           SKY/WX    TMP DP  RH WIND       PRES   REMARKS
MEMPHIS INTL   SUNNY     39  18  42 W5        30.49F
NWS MEMPHIS      N/A     42 N/A N/A MISG        N/A
JACKSON        SUNNY     35   9  33 CALM      30.48F
DYERSBURG      SUNNY     34   9  35 CALM      30.50F
UNION CITY     SUNNY     27  14  59 S6        30.47F WCI  20
PARIS          CLEAR     30   9  40 SW7       30.46S WCI  23
LEXINGTON      CLEAR     36   7  30 S3        30.46F
SAVANNAH       CLEAR     37   9  30 CALM      30.47F
$$

TNZ008-025-027-028-033-062-065-066-070000-
NORTH MIDDLE TENNESSEE

CITY           SKY/WX    TMP DP  RH WIND       PRES   REMARKS
NASHVILLE      CLEAR     36  13  38 CALM      30.47F
CLARKSVILLE    CLEAR     33  11  39 S8        30.44F WCI  26
COOKEVILLE     CLEAR     34  21  60 CALM      30.43S
CROSSVILLE     CLEAR     34  14  43 W5        30.38S WCI  30
$$

TNZ061-075-076-078-094-096-097-070000-
SOUTH MIDDLE TENNESSEE

CITY           SKY/WX    TMP DP  RH WIND       PRES   REMARKS
FAYETTEVILLE   CLEAR     34  19  55 N6          N/A  WCI  29
TULLAHOMA      CLEAR     34  18  51 NW5         N/A  WCI  30
WINCHESTER     CLEAR     36  18  48 NW5       30.44S WCI  32
COLUMBIA         N/A     37  16  41 CALM      30.44S
SHELBYVILLE    CLEAR     34  21  60 CALM      30.46F
$$

TNZ017-018-042-046-047-070000-
NORTHEAST TENNESSEE

CITY           SKY/WX    TMP DP  RH WIND       PRES   REMARKS
TRI CITIES     PTCLDY    35  14  42 NW7       30.38S WCI  29
ELIZABETHTON   CLEAR     34  10  37 W7        30.37R WCI  28
$$

TNZ012-013-036-069-073-074-070000-
CENTRAL EAST TENNESSEE

CITY           SKY/WX    TMP DP  RH WIND       PRES   REMARKS
KNOXVILLE      CLEAR     38  18  44 CALM      30.42S
OAK RIDGE      CLEAR     41  15  35 VRB6      30.42F
GATLINBURG     CLEAR     37  19  48 W5        30.40S WCI  34
$$

TNZ083-085-099-070000-
SOUTHEAST TENNESSEE

CITY           SKY/WX    TMP DP  RH WIND       PRES   REMARKS
CHATTANOOGA    PTCLDY    43  23  45 NE7       30.42S
$$

SKY/WX REPORTED AS FAIR MEANS FEW OR NO CLOUDS BELOW
12 THOUSAND FEET.




USA.gov is the U.S. government's official web portal to all federal, state and local government web resources and services.